Regional Weather Roundup
Issued by NWS Cleveland, OH

Home | Current Version | Previous Version | Graphics & Text | Print | Product List | Glossary On
Versions: 1 2 3 4 5 6 7 8 9 10 11 12 13 14 15 16 17 18 19 20 21 22 23 24 25 26 27 28 29 30 31 32 33 34 35 36 37 38 39 40 41 42 43 44 45 46 47 48 49 50
281
ASUS41 KCLE 242112
RWRCLE
OHIO REGIONAL WEATHER ROUNDUP
NATIONAL WEATHER SERVICE WILMINGTON, OH
400 PM EST FRI NOV 24 2017

NOTE: "FAIR" INDICATES FEW OR NO CLOUDS BELOW 12,000 FEET WITH NO
SIGNIFICANT WEATHER AND/OR OBSTRUCTIONS TO VISIBILITY.

OHZ001>008-015>018-024>027-034-035-043-044-242200-
   NORTHWEST OHIO

CITY           SKY/WX    TMP DP  RH WIND       PRES   REMARKS
DEFIANCE       FAIR      54  33  45 S18       29.68F
FINDLAY        FAIR      52  31  44 S16       29.72F
TOLEDO EXPRESS FAIR      55  34  45 S13G28    29.68F
TOLEDO EXEC    FAIR      54  32  43 SW17      29.70F
LIMA           FAIR      52  32  46 S17G23    29.73F
$$

OHZ009>014-019>023-028>033-038-089-242200-
   NORTHEAST OHIO

CITY           SKY/WX    TMP DP  RH WIND       PRES   REMARKS
CLE-HOPKINS    FAIR      53  28  38 S13       29.77F
CLE-LAKEFRONT  FAIR      54  26  34 S13G26    29.73F
CUY CO. ARPT   PTCLDY    54  28  37 S14G23    29.75F
LORAIN-ELYRIA  FAIR      52  26  36 SW20      29.75F
ASHTABULA      FAIR      51  25  36 S16G25    29.76F
AKRON-CANTON   FAIR      51  24  34 S17       29.79F
WOOSTER        FAIR      51  26  37 SW10      29.79F
MANSFIELD      FAIR      50  29  44 S17       29.77F
YOUNGSTOWN     FAIR      52  22  30 S10       29.79F
$$

OHZ042-051>053-060>062-070>072-077>081-242200-
  SOUTHWEST OHIO

CITY           SKY/WX    TMP DP  RH WIND       PRES   REMARKS
CINC-COVINGTON FAIR      53  28  38 S10       29.81F
CINC-LUNKEN    FAIR      56  29  35 S13       29.83F
HAMILTON       FAIR      58  29  33 S10G18    29.81F
DAYTON         FAIR      53  29  39 S15       29.79F
WRIGHT-PAT AFB MOSUNNY   54  24  30 SW14G23   29.79F
DAYTON GENERAL FAIR      54  26  34 SW13      29.79F
WILMINGTON     FAIR      53  30  41 S14       29.81F
$$

OHZ036-037-039>041-045>050-054>059-063>069-073>076-082>088-242200-
  CENTRAL AND SOUTHEAST OHIO

CITY           SKY/WX    TMP DP  RH WIND       PRES   REMARKS
COLUMBUS       PTSUNNY   54  26  34 SW14      29.81F
OSU AIRPORT    FAIR      53  28  38 S13G22    29.80F
BOLTON FIELD   SUNNY     54  28  37 S13       29.81F
RICKENBACK AFB FAIR      54  26  34 S10       29.81F
NEWARK         FAIR      54  23  30 SW10      29.81F
MARION         FAIR      51  28  41 S18G26    29.77F
LANCASTER      FAIR      53  26  35 S9        29.83F
ZANESVILLE     FAIR      54  22  28 S10       29.83F
NEW PHILLY     FAIR      53  23  31 S9        29.82F
$$




USA.gov is the U.S. government's official web portal to all federal, state and local government web resources and services.